Location: Celina Division
(33.3022°N, 96.7580°W)
Time: 03:29:01
(UTC+00:00)

NOAA 18 - Pass Details

Date: 04 April 2023
Orbit: 838 x 860 km, 98.9° (Epoch: 07 June)

Event Time Altitude Azimuth Distance (km) Brightness Sun altitude
Exits shadow 05:12:02 12° 329° (NNW) 2,393 8.1 -46.9°
Drops below altitude 10° 05:12:21 10° 330° (NNW) 2,501 8.2 -46.9°
Sets 05:14:53 0° 338° (NNW) 3,441 9.1 -47.2°
